Stündliche Wetter Abakumovo

Heute, 8 März, Montag

Zeit Temperatur Niederschläge Wind Luftdruck Luftfeuchtigkeit
00:00 -10°C° 0 mm 6 m/S 731 mmHg 82%
01:00 -11°C° 0 mm 6 m/S 732 mmHg 83%
02:00 -12°C° 0 mm 5 m/S 732 mmHg 85%
03:00 -11°C° 0 mm 4 m/S 732 mmHg 87%
04:00 -12°C° 0 mm 5 m/S 732 mmHg 89%
05:00 -12°C° 0 mm 5 m/S 732 mmHg 90%
06:00 -12°C° 0 mm 5 m/S 732 mmHg 92%
07:00 -11°C° 0.1 mm 5 m/S 732 mmHg 91%
08:00 -10°C° 0.1 mm 6 m/S 732 mmHg 90%
09:00 -11°C° 0 mm 7 m/S 733 mmHg 89%
10:00 -9°C° 0.1 mm 7 m/S 733 mmHg 86%
11:00 -9°C° 0.1 mm 7 m/S 734 mmHg 83%
12:00 -10°C° 0.1 mm 8 m/S 734 mmHg 80%
13:00 -9°C° 0 mm 7 m/S 735 mmHg 80%
14:00 -9°C° 0 mm 6 m/S 735 mmHg 80%
15:00 -8°C° 0 mm 4 m/S 735 mmHg 80%
16:00 -10°C° 0 mm 4 m/S 736 mmHg 82%
17:00 -11°C° 0 mm 4 m/S 737 mmHg 85%
18:00 -12°C° 0 mm 3 m/S 737 mmHg 87%
19:00 -13°C° 0 mm 3 m/S 738 mmHg 88%
20:00 -14°C° 0 mm 3 m/S 739 mmHg 89%
21:00 -14°C° 0 mm 3 m/S 739 mmHg 90%
22:00 -15°C° 0 mm 3 m/S 739 mmHg 91%
23:00 -15°C° 0 mm 2 m/S 740 mmHg 93%

Morgen, 9 März, Dienstag

Zeit Temperatur Niederschläge Wind Luftdruck Luftfeuchtigkeit
00:00 -15°C° 0 mm 2 m/S 740 mmHg 94%
01:00 -16°C° 0 mm 2 m/S 740 mmHg 94%
02:00 -17°C° 0 mm 2 m/S 741 mmHg 94%
03:00 -17°C° 0 mm 2 m/S 741 mmHg 94%
04:00 -19°C° 0 mm 3 m/S 741 mmHg 95%
05:00 -21°C° 0 mm 3 m/S 742 mmHg 95%
06:00 -21°C° 0 mm 3 m/S 742 mmHg 96%
07:00 -21°C° 0 mm 3 m/S 742 mmHg 96%
08:00 -19°C° 0 mm 3 m/S 743 mmHg 95%
09:00 -19°C° 0 mm 3 m/S 743 mmHg 95%
10:00 -19°C° 0 mm 4 m/S 743 mmHg 94%
11:00 -18°C° 0 mm 4 m/S 744 mmHg 93%
12:00 -17°C° 0 mm 4 m/S 744 mmHg 91%
13:00 -16°C° 0 mm 4 m/S 744 mmHg 90%
14:00 -16°C° 0 mm 4 m/S 745 mmHg 88%
15:00 -15°C° 0 mm 4 m/S 745 mmHg 87%
16:00 -16°C° 0 mm 4 m/S 745 mmHg 89%
17:00 -17°C° 0 mm 4 m/S 746 mmHg 90%
18:00 -17°C° 0 mm 3 m/S 746 mmHg 92%
19:00 -18°C° 0 mm 3 m/S 746 mmHg 93%
20:00 -19°C° 0 mm 3 m/S 747 mmHg 94%
21:00 -22°C° 0 mm 4 m/S 748 mmHg 95%
22:00 -22°C° 0 mm 3 m/S 748 mmHg 96%
23:00 -23°C° 0 mm 3 m/S 748 mmHg 97%

übermorgen, 10 März, Mittwoch

Zeit Temperatur Niederschläge Wind Luftdruck Luftfeuchtigkeit
00:00 -24°C° 0 mm 3 m/S 748 mmHg 98%
01:00 -25°C° 0 mm 3 m/S 749 mmHg 98%
02:00 -26°C° 0 mm 3 m/S 749 mmHg 97%
03:00 -27°C° 0 mm 3 m/S 749 mmHg 97%
04:00 -29°C° 0 mm 3 m/S 750 mmHg 97%
05:00 -29°C° 0 mm 3 m/S 750 mmHg 97%
06:00 -30°C° 0 mm 3 m/S 751 mmHg 97%
07:00 -30°C° 0 mm 4 m/S 751 mmHg 96%
08:00 -30°C° 0 mm 4 m/S 752 mmHg 96%
09:00 -29°C° 0 mm 4 m/S 752 mmHg 95%
10:00 -27°C° 0 mm 4 m/S 752 mmHg 93%
11:00 -26°C° 0 mm 4 m/S 753 mmHg 92%
12:00 -23°C° 0 mm 3 m/S 753 mmHg 91%
13:00 -24°C° 0 mm 4 m/S 753 mmHg 90%
14:00 -23°C° 0 mm 4 m/S 753 mmHg 88%
15:00 -22°C° 0 mm 4 m/S 754 mmHg 87%
16:00 -23°C° 0 mm 4 m/S 754 mmHg 89%
17:00 -23°C° 0 mm 3 m/S 754 mmHg 91%
18:00 -24°C° 0 mm 3 m/S 754 mmHg 93%
19:00 -24°C° 0 mm 3 m/S 754 mmHg 92%
20:00 -25°C° 0 mm 3 m/S 755 mmHg 92%
21:00 -25°C° 0 mm 2 m/S 755 mmHg 92%
22:00 -25°C° 0 mm 2 m/S 755 mmHg 91%
23:00 -25°C° 0 mm 2 m/S 756 mmHg 91%

11 März, Donnerstag

Zeit Temperatur Niederschläge Wind Luftdruck Luftfeuchtigkeit
00:00 -25°C° 0 mm 2 m/S 756 mmHg 91%
01:00 -25°C° 0 mm 2 m/S 756 mmHg 90%
02:00 -26°C° 0 mm 2 m/S 756 mmHg 90%
03:00 -27°C° 0 mm 3 m/S 756 mmHg 90%
04:00 -27°C° 0 mm 3 m/S 757 mmHg 90%
05:00 -27°C° 0 mm 3 m/S 757 mmHg 91%
06:00 -27°C° 0 mm 3 m/S 757 mmHg 92%
07:00 -25°C° 0 mm 2 m/S 757 mmHg 92%
08:00 -24°C° 0 mm 2 m/S 757 mmHg 93%
09:00 -23°C° 0 mm 2 m/S 758 mmHg 93%
10:00 -21°C° 0 mm 2 m/S 758 mmHg 92%
11:00 -19°C° 0 mm 2 m/S 758 mmHg 90%
12:00 -17°C° 0 mm 2 m/S 758 mmHg 89%
13:00 -17°C° 0 mm 2 m/S 758 mmHg 88%
14:00 -16°C° 0 mm 2 m/S 758 mmHg 87%
15:00 -15°C° 0 mm 2 m/S 758 mmHg 87%
16:00 -16°C° 0 mm 2 m/S 757 mmHg 89%
17:00 -15°C° 0 mm 1 m/S 757 mmHg 91%
18:00 -16°C° 0 mm 1 m/S 757 mmHg 93%
19:00 -17°C° 0 mm 1 m/S 757 mmHg 94%
20:00 -18°C° 0 mm 1 m/S 758 mmHg 94%
21:00 -18°C° 0 mm 1 m/S 758 mmHg 95%
22:00 -18°C° 0 mm 1 m/S 758 mmHg 95%
23:00 -19°C° 0 mm 1 m/S 758 mmHg 95%

12 März, Freitag

Zeit Temperatur Niederschläge Wind Luftdruck Luftfeuchtigkeit
00:00 -19°C° 0 mm 1 m/S 758 mmHg 96%
01:00 -20°C° 0 mm 1 m/S 758 mmHg 96%
02:00 -23°C° 0 mm 2 m/S 758 mmHg 96%
03:00 -23°C° 0 mm 2 m/S 758 mmHg 96%
04:00 -23°C° 0 mm 2 m/S 758 mmHg 95%
05:00 -24°C° 0 mm 2 m/S 758 mmHg 95%
06:00 -24°C° 0 mm 2 m/S 758 mmHg 94%
07:00 -23°C° 0 mm 2 m/S 758 mmHg 93%
08:00 -21°C° 0 mm 2 m/S 758 mmHg 91%
09:00 -20°C° 0 mm 2 m/S 758 mmHg 90%
10:00 -21°C° 0 mm 3 m/S 758 mmHg 88%
11:00 -18°C° 0 mm 3 m/S 758 mmHg 87%
12:00 -17°C° 0 mm 3 m/S 758 mmHg 85%
13:00 -16°C° 0 mm 3 m/S 758 mmHg 85%
14:00 -16°C° 0 mm 4 m/S 758 mmHg 85%
15:00 -16°C° 0 mm 4 m/S 757 mmHg 84%
16:00 -17°C° 0 mm 4 m/S 757 mmHg 87%
17:00 -18°C° 0 mm 4 m/S 757 mmHg 89%
18:00 -18°C° 0 mm 3 m/S 756 mmHg 91%
19:00 -19°C° 0 mm 4 m/S 756 mmHg 91%
20:00 -20°C° 0 mm 4 m/S 756 mmHg 91%
21:00 -20°C° 0 mm 4 m/S 756 mmHg 91%
22:00 -20°C° 0 mm 4 m/S 756 mmHg 89%
23:00 -21°C° 0 mm 5 m/S 756 mmHg 88%

13 März, Samstag

Zeit Temperatur Niederschläge Wind Luftdruck Luftfeuchtigkeit
00:00 -21°C° 0 mm 5 m/S 756 mmHg 86%
01:00 -21°C° 0 mm 5 m/S 755 mmHg 85%
02:00 -21°C° 0 mm 5 m/S 755 mmHg 85%
03:00 -20°C° 0 mm 5 m/S 755 mmHg 84%
04:00 -21°C° 0 mm 6 m/S 754 mmHg 84%
05:00 -20°C° 0 mm 6 m/S 754 mmHg 83%
06:00 -20°C° 0 mm 6 m/S 754 mmHg 83%
07:00 -18°C° 0 mm 7 m/S 753 mmHg 82%
08:00 -17°C° 0 mm 7 m/S 753 mmHg 81%
09:00 -15°C° 0 mm 8 m/S 753 mmHg 80%
10:00 -15°C° 0.1 mm 8 m/S 753 mmHg 83%
11:00 -14°C° 0.1 mm 9 m/S 753 mmHg 85%
12:00 -12°C° 0.1 mm 9 m/S 752 mmHg 87%
13:00 -11°C° 0.1 mm 9 m/S 752 mmHg 89%
14:00 -11°C° 0.1 mm 9 m/S 752 mmHg 90%
15:00 -11°C° 0.1 mm 8 m/S 751 mmHg 91%
16:00 -11°C° 0.1 mm 8 m/S 751 mmHg 91%
17:00 -11°C° 0.1 mm 7 m/S 751 mmHg 91%
18:00 -10°C° 0.1 mm 6 m/S 751 mmHg 91%
19:00 -10°C° 0 mm 6 m/S 750 mmHg 91%
20:00 -10°C° 0 mm 6 m/S 750 mmHg 92%
21:00 -10°C° 0 mm 6 m/S 750 mmHg 92%
22:00 -10°C° 0 mm 6 m/S 750 mmHg 92%
23:00 -10°C° 0 mm 5 m/S 750 mmHg 92%
Mehr zeigen

Wir brauchen deine Erlaubnis

Meteoprog und unser Service Anbieter werden persönliche Daten aufbewahren, so wie Cookies, Geräte Bezeichnung oder ähnliche Technologien von deinem Gerät und Prozess, so wie Persönliche Daten Inhalte und Werbungen, genauso wie social Media und den Verkehr zu analysieren.

  • Aufbewahrung und/oder Zugang zu deiner Geräte Informationen.

    Cookies, Geräte Bezeichnung oder andere Informationen, können aufbewahrt oder Zugang zu deinem Gerät erhalten, für den Grund, der oben angegeben wird.

  • Personalisierte Werbung und Inhalte, Messungen, Einblick in das Publikum und Produkt Entwicklung.

    Werbungen und Inhalte können personalisiert werden, basierend auf ein Profil. Mehr Daten können besser personalisierte Werbungen und Inhalte hinzufügen. Werbung und Inhalte können gezeigt und gemessen werden. Einblicke über das Publikum, welche die Werbung gesehen haben und den Inhalt, können abgeleitet werden. So wie Daten können genutzt werden, um es zu verbessern oder die Benutzer Erfahrung zu verbessern das System und die Software.

Wenn du “Ich stimme zu” klickst, erlaubst du uns, die Cookies zu benutzen die Geräte Bezeichnung, den Web oder ähnliche Technologien zu benutzen. Deine Settings, können in deinem Gerät bei deinem Browser geändert werden.

Für den bestimmten Zweck, berechtigten Interessen beruhen darauf, mehr als auf den Inhalt. Du kannst mehr darüber in unseren Privaten und Cookie Politik lesen.